Location: Navalespino
(40.5894°N, 4.2660°W)
Time: 06:47:01
(UTC+00:00)

CENTAUR R/B - Visible Passes

Search period start: 13 July 2024 00:00
Search period end: 23 July 2024 00:00
Orbit: 666 x 1518 km, 63.4° (Epoch: 12 July)

Date Brightness Start Highest point End Pass type
(mag) Time Alt. Az. Time Alt. Az. Time Alt. Az.
13 Jul 4.4 01:26:16 10° NNW 01:33:59 41° NE 01:42:33 10° ESE visible
13 Jul 3.4 03:16:46 10° NW 03:25:15 64° WSW 03:34:25 10° SSE visible
13 Jul 5.5 20:53:05 10° NW 20:56:30 14° NNW 21:00:17 10° NNE visible
13 Jul 5.7 22:47:32 10° NNW 22:50:55 13° NNE 22:54:32 10° NE visible
14 Jul 4.9 00:37:41 10° NNW 00:44:37 29° NE 00:52:16 10° E visible
14 Jul 3.3 02:27:52 10° NW 02:36:25 88° NE 02:45:48 10° SSE visible
14 Jul 4.3 04:19:57 10° WNW 04:26:32 24° WSW 04:33:24 10° SSW visible
14 Jul 5.6 21:58:18 10° NNW 22:00:54 12° N 22:03:38 10° NNE visible
14 Jul 5.2 23:49:07 10° NNW 23:55:02 22° NNE 00:01:33 10° ENE visible
15 Jul 3.7 01:39:06 10° NNW 01:47:26 62° NE 01:56:40 10° SE visible
15 Jul 3.8 03:30:15 10° NW 03:38:05 38° WSW 03:46:24 10° S visible
15 Jul 5.6 21:08:15 10° NNW 21:10:52 12° N 21:13:39 10° NNE visible
15 Jul 5.5 23:00:31 10° NNW 23:05:16 17° NNE 23:10:27 10° ENE visible
16 Jul 4.3 00:50:27 10° NNW 00:58:17 43° NE 01:06:59 10° ESE visible
16 Jul 3.4 02:41:02 10° NW 02:49:27 59° WSW 02:58:32 10° SSE visible
16 Jul 5.5 20:17:39 10° NW 20:20:56 14° NNW 20:24:30 10° NNE visible
16 Jul 5.5 22:11:45 10° NNW 22:15:21 14° NNE 22:19:12 10° NE visible
17 Jul 4.7 00:01:51 10° NNW 00:08:57 31° NE 00:16:47 10° E visible
17 Jul 3.3 01:52:05 10° NW 02:00:39 86° WSW 02:10:02 10° SSE visible
17 Jul 4.4 03:44:26 10° WNW 03:50:40 22° WSW 03:57:08 10° SSW visible
17 Jul 5.5 21:22:38 10° NNW 21:25:20 12° N 21:28:12 10° NNE visible
17 Jul 5.1 23:13:17 10° NNW 23:19:24 23° NNE 23:26:08 10° E visible
18 Jul 3.6 01:03:18 10° NNW 01:11:42 67° NE 01:19:57 14° SE visible
18 Jul 3.9 02:54:35 10° NW 03:02:15 35° WSW 03:06:54 23° SSW visible
18 Jul 5.5 20:32:45 10° NNW 20:35:18 12° N 20:38:00 10° NNE visible
18 Jul 5.3 22:24:41 10° NNW 22:29:40 17° NNE 22:35:06 10° ENE visible
19 Jul 4.1 00:14:37 10° NNW 00:22:34 46° NE 00:30:39 13° ESE visible
19 Jul 3.4 02:05:17 10° NW 02:13:38 54° WSW 02:17:38 34° S visible
19 Jul 4.9 04:01:59 10° W 04:03:00 10° W 04:04:01 10° WSW visible
19 Jul 5.4 21:35:58 10° NNW 21:39:47 14° NNE 21:43:52 10° NE visible
19 Jul 4.5 23:26:01 10° NNW 23:33:16 33° NE 23:41:18 10° ESE visible
20 Jul 3.2 01:16:18 10° NW 01:24:52 81° WSW 01:28:53 40° SSE visible
20 Jul 4.5 03:08:57 10° WNW 03:14:47 20° WSW 03:15:55 19° WSW visible
20 Jul 5.4 20:46:57 10° NNW 20:49:46 12° N 20:52:46 10° NNE visible
20 Jul 4.9 22:37:26 10° NNW 22:43:45 24° NNE 22:50:44 10° E visible
21 Jul 3.4 00:27:29 10° NNW 00:35:57 71° NE 00:40:26 35° SE visible
21 Jul 4.0 02:18:55 10° NW 02:26:23 32° WSW 02:27:28 31° WSW visible
21 Jul 5.2 21:48:50 10° NNW 21:54:03 18° NNE 21:59:45 10° ENE visible
21 Jul 3.9 23:38:47 10° NNW 23:46:50 50° NE 23:52:11 25° ESE visible
22 Jul 3.5 01:29:33 10° NW 01:37:49 50° WSW 01:39:15 47° SW visible
22 Jul 5.3 21:00:09 10° NNW 21:04:11 15° NNE 21:08:31 10° NE visible
22 Jul 4.4 22:50:10 10° NNW 22:57:34 35° NE 23:04:06 16° E visible
